Weather History for Ponca City, OK

Change the Weather History Date:

Monday, January 27, 2014

  Actual Average Record
Temperature  
Mean Temperature 24 °F -  
Max Temperature 30 °F 49 °F 70 °F (1951)
Min Temperature 16 °F 26 °F - (2000)
Degree Days  
Heating Degree Days 41    
Moisture  
Dew Point -8 °F    
Average Humidity 29    
Maximum Humidity 54    
Minimum Humidity 24    
Precipitation  
Precipitation 0.00 in - - ()
Sea Level Pressure  
Sea Level Pressure 30.44 in    
Wind  
Wind Speed 20 mph (NNE)    
Max Wind Speed 29 mph    
Max Gust Speed 37 mph    
Visibility 10 miles    
Events      
Averages and records for this station are not official NWS values.
T = Trace of Precipitation, MM = Missing Value Source: NWS Daily Summary

Daily Weather History Graph

Daily Weather History Graph

Search for Another Location

Airport:

Trip Planner

Search our weather history database for the weather conditions in past years. The results will help you decide how hot, cold, wet, or windy it might be!

Date:

Astronomy

Jan. 27, 2014 Rise Set
Actual Time 7:34 AM CST 5:48 PM CST
Civil Twilight 7:06 AM CST 6:16 PM CST
Nautical Twilight 6:35 AM CST 6:47 PM CST
Astronomical Twilight 6:04 AM CST 7:18 PM CST
Moon 4:15 AM CST (1/27) 2:37 PM CST (1/27)
Length of Visible Light 11h 09m
Length of Day
10h 14m
Waning Crescent, 14% of the Moon is Illuminated
Jan 27
Waning Crescent
Jan 30
New
Feb 6
First Quarter
Feb 14
Full
Feb 22
Last Quarter

Hourly Weather History & Observations

Time (CST) Temp. Windchill Dew Point Humidity Pressure Visibility Wind Dir Wind Speed Gust Speed Precip Events Conditions
12:53 AM 30.0 °F 15.2 °F 1.9 °F 30% 30.19 in 10.0 mi NNE 28.8 mph 34.5 mph N/A   Mostly Cloudy
1:53 AM 28.0 °F 13.9 °F -0.9 °F 29% 30.23 in 10.0 mi North 23.0 mph 31.1 mph N/A   Overcast
2:53 AM 25.0 °F 9.5 °F -6.0 °F 26% 30.29 in 10.0 mi North 24.2 mph 36.8 mph N/A   Overcast
3:53 AM 23.0 °F 7.2 °F -9.0 °F 24% 30.33 in 10.0 mi NNE 23.0 mph 33.4 mph N/A   Overcast
4:53 AM 21.0 °F 5.4 °F -8.0 °F 28% 30.36 in 10.0 mi North 20.7 mph 26.5 mph N/A   Overcast
5:53 AM 19.9 °F 4.8 °F -8.0 °F 29% 30.39 in 10.0 mi North 18.4 mph 29.9 mph N/A   Overcast
6:53 AM 19.0 °F 4.5 °F -8.0 °F 30% 30.42 in 10.0 mi North 16.1 mph - N/A   Overcast
7:53 AM 18.0 °F 0.9 °F -11.0 °F 27% 30.45 in 10.0 mi North 21.9 mph 29.9 mph N/A   Overcast
8:53 AM 18.0 °F 3.1 °F -11.0 °F 27% 30.49 in 10.0 mi North 16.1 mph - N/A   Overcast
9:53 AM 18.0 °F 1.7 °F -11.0 °F 27% 30.50 in 10.0 mi NNE 19.6 mph - N/A   Overcast
10:53 AM 19.0 °F 3.2 °F -11.0 °F 26% 30.51 in 10.0 mi North 19.6 mph - N/A   Overcast
11:53 AM 19.9 °F 7.3 °F -9.9 °F 26% 30.50 in 10.0 mi NE 12.7 mph - N/A   Overcast
12:53 PM 19.9 °F 5.7 °F -9.9 °F 26% 30.49 in 10.0 mi North 16.1 mph - N/A   Overcast
1:53 PM 19.9 °F 7.9 °F -9.0 °F 27% 30.46 in 10.0 mi NNE 11.5 mph - N/A   Overcast
2:53 PM 19.9 °F 6.7 °F -11.0 °F 25% 30.46 in 10.0 mi NNE 13.8 mph - N/A   Overcast
3:53 PM 19.0 °F 6.1 °F -9.9 °F 27% 30.47 in 10.0 mi North 12.7 mph - N/A   Overcast
4:53 PM 19.0 °F 6.1 °F -9.9 °F 27% 30.47 in 10.0 mi North 12.7 mph - N/A   Overcast
5:53 PM 19.0 °F 6.1 °F -9.9 °F 27% 30.47 in 10.0 mi NNE 12.7 mph - N/A   Overcast
6:53 PM 18.0 °F 4.2 °F -9.0 °F 30% 30.48 in 10.0 mi NNE 13.8 mph - N/A   Overcast
7:53 PM 18.0 °F 3.6 °F -8.0 °F 31% 30.49 in 10.0 mi NNE 15.0 mph - N/A   Overcast
8:53 PM 18.0 °F 6.9 °F -8.0 °F 31% 30.50 in 10.0 mi NNE 9.2 mph - N/A   Overcast
9:53 PM 18.0 °F 5.4 °F -8.0 °F 31% 30.51 in 10.0 mi NNE 11.5 mph - N/A   Overcast
10:53 PM 18.0 °F 6.9 °F -7.1 °F 33% 30.52 in 10.0 mi NE 9.2 mph - N/A   Overcast
11:53 PM 16.0 °F 2.9 °F 1.9 °F 54% 30.53 in 8.0 mi NNE 11.5 mph - 0.00 in   Overcast